軌道要素
Epoch 2022 May 21.0 TT = JDT 2459720.5
T 2022 June 9.14137 TT Rudenko
q 4.2425016 (2000.0) P Q
z +0.0009923 Peri. 351.20001 -0.95992718 +0.05603800
+/-0.0000013 Node 199.93933 -0.18195467 -0.86982891
e 0.9957903 Incl. 53.62861 -0.21314857 +0.49016060
From 199 observations 2019 Feb. 5-2020 Oct. 11, mean residual 0".3.
|